Zurück zum Katalog

STARLINK-37919

AktivKommunikationVLEO
NORAD 69957·PAYLOAD·🇺🇸 United States

Gestartet Jul 9, 2026 von Cape Canaveral Space Force Station

Loading…

Nächste Überflüge (nächste 24 Stunden)

TLE

AktuellSource: CelesTrak SupGP

Epoche: Sep 14, 2026, 22:36 UTC

1 69957C 26157Q   26257.94215278 -.00006593  00000+0 -19478-3 0  2570
2 69957  53.1586 359.9877 0001236  81.1627 354.5648 15.34398105    16

Verfolge STARLINK-37919 in Echtzeit mit AllMySat

Download on the App Store